Location: Cuguron
(43.0994°N, 0.5363°E)
Time: 11:12:07
(UTC+00:00)

Cosmos 1486 Rocket - Pass Details

Date: 15 May 2026
Orbit: 754 x 779 km, 74.1° (Epoch: 5 June)

Event Time Altitude Azimuth Distance (km) Brightness Sun altitude
Rises 21:55:12 0° 335° (NNW) 3,247 8.8 -22.1°
Reaches altitude 10° 21:57:37 10° 331° (NNW) 2,320 7.6 -22.3°
Maximum altitude 22:02:44 54° 255° (WSW) 934 4.4 -22.8°
Enters shadow 22:04:10 41° 206° (SSW) 1,110 4.5 -22.9°
